SCP
1 2 1 0 0 0 0 0 0 0 1 0 0 0 0 0 0 0 0 0 0 0 0 0 0 0 0 0 0 0 0 0 0 0 0 -0 -0 0
1 1 1 0 1 1 1 0 0 0 1 1 0 0 0 0 0 0 0 0 0 0 0 0 0 0 0 0 0 0 0 0 0 0 0 0 -0 0
1 1 1 0 1 1 1 0 0 0 1 0 0 0 0 0 0 0 0 0 0 0 0 0 0 0 0 0 0 0 0 0 0 0 0 -0 -0 0
2 1 1 1 1 1 1 0 0 1 1 0 0 0 0 0 0 0 0 0 0 0 0 0 0 0 0 0 0 0 0 0 0 0 0 -0 -0 0
3 1 1 1 1 2 2 2 1 1 1 1 0 0 0 0 0 0 0 0 0 0 0 0 0 0 0 0 0 0 0 0 0 0 0 0 0 0
2 2 2 2 2 0 0 0 0 0 1 1 0 0 0 0 0 0 0 0 0 0 0 0 0 0 0 0 0 0 0 0 0 0 0 0 0 0
0 4 2 2 1 0 0 0 0 0 0 0 0 0 0 0 0 0 0 0 0 0 0 0 0 0 0 0 0 0 0 0 0 0 0 0 0 0
0 0 1 0 0 0 0 0 0 0 0 0 0 0 0 0 0 0 0 0 0 0 0 0 0 0 0 0 0 0 0 0 0 0 0 0 0 0
1 0 0 0 0 0 0 0 0 0 0 0 0 0 0 0 0 0 0 0 0 0 0 0 0 0 0 0 0 0 0 0 0 -0 0 0 0 0
1 1 0 0 0 0 0 0 0 0 0 0 0 0 0 0 0 0 0 0 0 0 0 0 0 0 0 0 0 0 0 0 0 -0 0 0 0 0
0 1 1 0 0 0 0 0 0 0 0 0 0 0 0 0 0 0 0 0 0 0 0 0 0 0 0 0 0 0 0 0 0 0 -0 0 0 0
0 1 1 1 0 0 0 0 0 0 0 0 0 0 0 0 0 0 0 0 0 0 0 0 0 0 0 0 0 0 0 0 0 -0 0 -0 0 0
0 0 1 0 0 0 0 0 0 0 0 0 0 0 0 0 0 0 0 0 0 0 0 0 0 0 0 0 0 0 0 0 0 0 0 -0 0 -0
0 0 0 0 0 0 0 0 0 0 0 0 0 0 0 0 0 0 0 0 0 0 0 0 0 0 0 0 0 0 0 0 0 0 0 0 0 0
0 0 0 0 0 0 0 0 0 0 0 0 0 0 0 0 0 0 0 0 0 0 0 0 0 0 0 0 0 0 0 0 -0 -0 0 -0 -0 -0
0 0 0 0 0 0 0 0 0 0 0 0 0 0 0 0 0 0 0 0 0 0 0 0 0 0 0 0 0 0 0 0 0 -0 0 -0 0 0
0 0 0 0 0 0 0 0 0 0 0 0 0 0 0 0 0 0 0 0 0 0 0 0 0 0 0 0 0 0 0 0 0 -0 0 -0 -0 0
0 0 0 0 0 0 0 0 0 0 0 0 0 0 0 0 0 0 0 0 0 0 0 0 0 0 0 0 0 0 0 -0 0 -0 0 -0 0 0
0 0 0 0 0 0 0 0 0 0 0 0 0 0 0 0 0 0 0 0 0 0 0 0 0 0 0 0 0 -0 0 -0 0 0 -0 0 -0 0
0 0 0 0 0 0 0 0 0 0 0 0 0 0 0 0 0 0 0 0 0 0 0 0 0 0 0 0 0 0 0 0 0 0 0 0 0 -0
0 0 0 0 0 0 0 0 0 0 0 0 0 0 0 0 0 0 0 0 0 0 0 0 0 0 0 0 0 0 0 -0 0 0 0 0 0 -0
0 0 0 0 0 0 0 0 0 0 0 0 0 0 0 0 0 0 0 0 0 0 0 0 0 0 0 0 0 0 0 0 0 -0 -0 -0 -0 0
-0 0 0 0 0 0 0 0 0 0 0 0 0 0 0 0 0 0 0 0 0 0 0 0 0 0 0 0 0 0 0 0 0 0 0 -0 -0 0
Wind_Speed_500mb
64 61 49 39 26 25 23 20 15 15 3 12 11 13 12 19 19 12 8 10 15 19 19 18 16 16 18 21 22 25 27 28 31 36 38 38 39 38
63 57 62 49 30 34 28 25 21 17 8 15 11 4 11 15 18 12 9 12 13 18 18 19 15 14 16 20 23 24 25 29 32 36 40 42 45 43
60 61 59 60 35 37 36 30 24 20 11 13 12 7 12 14 14 14 11 13 11 14 15 17 13 10 15 20 22 25 26 27 34 39 42 45 51 40
67 58 57 60 51 40 37 37 31 25 23 15 16 15 15 14 14 13 10 12 15 13 16 16 15 9 14 20 23 26 25 28 35 39 43 48 44 35
76 73 70 63 64 53 42 37 32 30 28 22 18 19 14 16 16 13 13 11 12 15 16 14 12 9 14 18 24 23 24 27 34 39 42 44 38 35
92 87 81 72 68 73 60 45 33 20 17 13 20 21 16 9 16 16 15 14 17 15 16 16 14 11 10 15 20 23 29 29 32 37 41 39 35 35
73 88 78 83 74 72 73 62 38 30 18 20 23 29 29 23 14 18 16 17 18 16 15 17 14 12 13 12 16 20 26 27 33 36 39 37 34 37
73 49 91 91 72 71 67 52 42 54 27 35 29 32 42 28 21 17 18 19 20 17 15 15 15 11 14 14 12 17 21 25 31 35 36 35 36 38
29 40 70 67 73 74 67 47 62 64 68 54 44 31 18 25 20 20 24 25 26 19 13 14 18 14 13 15 7 11 19 23 28 34 37 33 36 37
31 30 34 38 50 69 80 74 74 72 64 56 55 45 27 17 24 22 24 29 28 22 18 20 21 16 13 14 6 6 13 17 26 34 35 36 35 41
38 32 39 47 53 53 59 71 63 78 71 68 69 55 52 39 34 33 30 27 29 30 25 22 25 14 9 12 10 1 7 15 23 32 40 38 36 43
40 40 43 47 62 65 70 72 75 78 80 89 91 74 53 47 44 41 32 24 13 17 17 26 27 13 5 12 15 8 4 10 16 26 35 39 32 41
52 50 48 50 56 69 67 74 86 75 76 103 88 92 76 56 54 51 39 28 12 25 22 18 20 13 8 5 17 15 9 15 13 25 33 33 25 34
70 60 53 50 46 55 73 76 65 85 88 95 96 88 86 76 72 60 47 43 41 34 23 25 23 9 12 10 14 19 18 16 14 25 27 27 27 29
73 64 63 60 55 46 55 60 67 82 90 88 89 84 78 68 69 52 39 57 49 37 32 31 24 13 17 15 14 20 24 23 19 26 21 17 22 22
76 70 62 61 55 65 67 58 64 81 94 92 85 81 73 60 63 60 58 48 42 43 39 29 21 18 20 15 13 18 23 17 23 26 10 15 20 22
59 64 62 48 55 57 57 55 50 82 97 97 90 90 78 74 74 72 65 52 31 34 37 31 29 24 26 24 21 20 22 29 26 21 10 17 22 23
44 44 50 55 46 47 56 49 44 61 92 90 101 88 86 80 82 87 70 57 39 36 36 33 33 32 31 29 21 22 27 29 28 21 13 12 20 25
31 24 40 42 40 53 34 51 53 57 86 66 89 76 46 83 94 88 79 59 48 41 36 31 36 39 39 37 30 29 24 32 33 30 13 15 17 22
37 42 32 39 43 42 44 46 46 62 62 76 88 55 54 44 73 86 75 63 51 46 44 35 41 44 41 39 33 35 36 34 40 34 24 17 15 19
67 47 43 40 42 39 46 37 44 57 51 68 66 73 78 69 54 58 70 66 54 49 44 37 38 39 40 35 30 37 43 42 40 31 25 17 19 18
64 66 55 53 46 42 47 57 54 49 61 59 60 59 67 65 81 64 62 70 60 51 48 39 44 52 51 47 35 36 51 51 47 33 30 23 22 19
62 68 64 60 48 50 51 51 64 56 50 47 51 66 70 63 51 64 50 57 68 62 57 53 49 53 54 51 45 38 53 54 49 41 34 27 23 18
Wind_Direction_500mb
205 203 195 196 205 204 212 223 217 282 332 208 241 270 347 340 324 324 301 300 280 284 288 311 316 327 340 348 354 349 352 355 3 358 354 352 348 348
210 207 203 191 187 205 200 198 210 221 120 181 236 308 341 344 325 323 299 299 289 299 316 320 332 325 341 355 357 359 1 359 3 360 355 352 350 346
216 209 204 191 184 208 199 196 198 200 184 202 246 316 326 315 308 302 294 306 311 322 328 337 333 328 353 0 2 6 4 2 6 2 357 354 354 359
218 209 210 204 193 200 201 196 197 202 197 215 253 277 294 292 288 292 301 295 307 315 322 326 328 341 356 8 16 8 2 5 9 5 2 359 3 12
223 215 212 208 203 194 195 197 197 204 207 217 238 262 287 286 283 281 281 284 295 311 320 316 327 332 349 2 8 10 8 10 10 5 6 3 12 15
233 226 210 215 211 203 198 191 190 197 222 213 258 262 264 277 270 285 285 284 267 281 304 309 304 323 334 348 2 12 3 4 14 7 9 9 24 20
255 224 212 211 210 208 205 197 198 199 204 233 239 248 252 255 262 299 294 293 282 277 290 300 292 294 304 320 349 3 4 3 12 12 11 16 29 17
229 238 231 227 211 212 210 211 216 244 228 243 247 261 245 250 253 289 300 312 285 286 267 288 278 269 292 308 333 5 4 10 13 14 17 25 30 25
270 260 227 229 219 211 202 216 242 233 230 223 239 259 261 245 244 253 289 301 291 283 271 265 280 264 272 269 305 3 8 12 16 17 27 30 31 33
268 275 269 267 250 234 232 222 220 213 218 234 231 238 253 224 224 257 274 282 286 274 266 268 274 260 259 249 268 359 19 22 26 24 29 32 35 34
277 263 245 248 233 227 220 214 222 212 214 229 235 236 235 244 247 251 257 263 272 279 258 250 271 265 265 240 217 151 42 39 37 41 34 28 42 38
265 265 253 245 249 244 225 225 228 218 223 235 234 234 223 228 239 253 257 262 279 284 304 240 261 255 239 234 199 172 113 67 48 46 48 41 33 38
275 260 255 243 241 242 238 232 229 233 231 231 233 230 221 228 231 238 234 242 239 265 273 267 258 237 233 227 183 169 141 89 69 60 45 37 47 49
277 269 258 255 239 238 241 238 237 236 234 233 231 225 221 223 233 237 239 225 221 231 257 243 258 252 233 215 169 172 132 109 86 66 49 33 49 68
267 274 260 250 245 244 234 240 235 234 226 226 222 217 215 220 228 231 220 211 219 225 230 241 253 256 226 212 174 162 144 130 107 86 68 31 45 81
259 263 261 251 252 249 252 245 235 234 221 216 210 208 212 216 216 206 208 199 208 220 226 231 210 224 221 208 188 161 154 140 126 105 108 46 66 86
251 254 252 242 246 247 247 246 242 223 220 213 211 208 209 208 206 206 211 203 212 220 218 207 202 209 205 206 180 170 160 146 137 126 94 74 82 86
268 243 234 231 232 236 239 242 244 222 219 211 208 209 210 209 210 204 204 205 208 217 210 206 204 204 198 198 185 172 162 158 146 137 107 82 93 91
228 244 241 235 242 227 226 232 232 234 222 205 192 197 236 206 197 193 199 204 207 209 202 202 200 202 203 200 190 177 175 164 152 142 149 96 90 97
238 222 235 249 243 246 246 237 227 226 223 222 215 218 238 192 185 192 199 201 203 204 198 197 202 202 202 213 200 192 171 170 164 167 165 131 127 114
240 234 219 240 246 242 240 243 241 228 219 218 219 213 237 247 206 193 201 205 210 207 206 201 204 193 202 205 214 194 177 173 182 183 175 157 138 131
244 239 235 229 235 247 245 235 242 226 223 223 224 219 223 224 224 211 204 207 207 222 218 206 197 195 197 203 209 201 187 180 186 184 195 189 162 163
236 232 230 229 232 239 238 237 225 229 236 229 221 225 229 240 220 211 217 210 205 209 212 207 198 196 201 199 207 204 193 187 186 183 189 176 154 160
Wind_Speed_850mb
64 61 49 39 26 25 23 20 15 15 3 12 11 13 12 19 19 12 8 10 15 19 19 18 16 16 18 21 22 25 27 28 31 36 38 38 39 38
63 57 62 49 30 34 28 25 21 17 8 15 11 4 11 15 18 12 9 12 13 18 18 19 15 14 16 20 23 24 25 29 32 36 40 42 45 43
60 61 59 60 35 37 36 30 24 20 11 13 12 7 12 14 14 14 11 13 11 14 15 17 13 10 15 20 22 25 26 27 34 39 42 45 51 40
67 58 57 60 51 40 37 37 31 25 23 15 16 15 15 14 14 13 10 12 15 13 16 16 15 9 14 20 23 26 25 28 35 39 43 48 44 35
76 73 70 63 64 53 42 37 32 30 28 22 18 19 14 16 16 13 13 11 12 15 16 14 12 9 14 18 24 23 24 27 34 39 42 44 38 35
92 87 81 72 68 73 60 45 33 20 17 13 20 21 16 9 16 16 15 14 17 15 16 16 14 11 10 15 20 23 29 29 32 37 41 39 35 35
73 88 78 83 74 72 73 62 38 30 18 20 23 29 29 23 14 18 16 17 18 16 15 17 14 12 13 12 16 20 26 27 33 36 39 37 34 37
73 49 91 91 72 71 67 52 42 54 27 35 29 32 42 28 21 17 18 19 20 17 15 15 15 11 14 14 12 17 21 25 31 35 36 35 36 38
29 40 70 67 73 74 67 47 62 64 68 54 44 31 18 25 20 20 24 25 26 19 13 14 18 14 13 15 7 11 19 23 28 34 37 33 36 37
31 30 34 38 50 69 80 74 74 72 64 56 55 45 27 17 24 22 24 29 28 22 18 20 21 16 13 14 6 6 13 17 26 34 35 36 35 41
38 32 39 47 53 53 59 71 63 78 71 68 69 55 52 39 34 33 30 27 29 30 25 22 25 14 9 12 10 1 7 15 23 32 40 38 36 43
40 40 43 47 62 65 70 72 75 78 80 89 91 74 53 47 44 41 32 24 13 17 17 26 27 13 5 12 15 8 4 10 16 26 35 39 32 41
52 50 48 50 56 69 67 74 86 75 76 103 88 92 76 56 54 51 39 28 12 25 22 18 20 13 8 5 17 15 9 15 13 25 33 33 25 34
70 60 53 50 46 55 73 76 65 85 88 95 96 88 86 76 72 60 47 43 41 34 23 25 23 9 12 10 14 19 18 16 14 25 27 27 27 29
73 64 63 60 55 46 55 60 67 82 90 88 89 84 78 68 69 52 39 57 49 37 32 31 24 13 17 15 14 20 24 23 19 26 21 17 22 22
76 70 62 61 55 65 67 58 64 81 94 92 85 81 73 60 63 60 58 48 42 43 39 29 21 18 20 15 13 18 23 17 23 26 10 15 20 22
59 64 62 48 55 57 57 55 50 82 97 97 90 90 78 74 74 72 65 52 31 34 37 31 29 24 26 24 21 20 22 29 26 21 10 17 22 23
44 44 50 55 46 47 56 49 44 61 92 90 101 88 86 80 82 87 70 57 39 36 36 33 33 32 31 29 21 22 27 29 28 21 13 12 20 25
31 24 40 42 40 53 34 51 53 57 86 66 89 76 46 83 94 88 79 59 48 41 36 31 36 39 39 37 30 29 24 32 33 30 13 15 17 22
37 42 32 39 43 42 44 46 46 62 62 76 88 55 54 44 73 86 75 63 51 46 44 35 41 44 41 39 33 35 36 34 40 34 24 17 15 19
67 47 43 40 42 39 46 37 44 57 51 68 66 73 78 69 54 58 70 66 54 49 44 37 38 39 40 35 30 37 43 42 40 31 25 17 19 18
64 66 55 53 46 42 47 57 54 49 61 59 60 59 67 65 81 64 62 70 60 51 48 39 44 52 51 47 35 36 51 51 47 33 30 23 22 19
62 68 64 60 48 50 51 51 64 56 50 47 51 66 70 63 51 64 50 57 68 62 57 53 49 53 54 51 45 38 53 54 49 41 34 27 23 18
Wind_Direction_850mb
205 203 195 196 205 204 212 223 217 282 332 208 241 270 347 340 324 324 301 300 280 284 288 311 316 327 340 348 354 349 352 355 3 358 354 352 348 348
210 207 203 191 187 205 200 198 210 221 120 181 236 308 341 344 325 323 299 299 289 299 316 320 332 325 341 355 357 359 1 359 3 360 355 352 350 346
216 209 204 191 184 208 199 196 198 200 184 202 246 316 326 315 308 302 294 306 311 322 328 337 333 328 353 0 2 6 4 2 6 2 357 354 354 359
218 209 210 204 193 200 201 196 197 202 197 215 253 277 294 292 288 292 301 295 307 315 322 326 328 341 356 8 16 8 2 5 9 5 2 359 3 12
223 215 212 208 203 194 195 197 197 204 207 217 238 262 287 286 283 281 281 284 295 311 320 316 327 332 349 2 8 10 8 10 10 5 6 3 12 15
233 226 210 215 211 203 198 191 190 197 222 213 258 262 264 277 270 285 285 284 267 281 304 309 304 323 334 348 2 12 3 4 14 7 9 9 24 20
255 224 212 211 210 208 205 197 198 199 204 233 239 248 252 255 262 299 294 293 282 277 290 300 292 294 304 320 349 3 4 3 12 12 11 16 29 17
229 238 231 227 211 212 210 211 216 244 228 243 247 261 245 250 253 289 300 312 285 286 267 288 278 269 292 308 333 5 4 10 13 14 17 25 30 25
270 260 227 229 219 211 202 216 242 233 230 223 239 259 261 245 244 253 289 301 291 283 271 265 280 264 272 269 305 3 8 12 16 17 27 30 31 33
268 275 269 267 250 234 232 222 220 213 218 234 231 238 253 224 224 257 274 282 286 274 266 268 274 260 259 249 268 359 19 22 26 24 29 32 35 34
277 263 245 248 233 227 220 214 222 212 214 229 235 236 235 244 247 251 257 263 272 279 258 250 271 265 265 240 217 151 42 39 37 41 34 28 42 38
265 265 253 245 249 244 225 225 228 218 223 235 234 234 223 228 239 253 257 262 279 284 304 240 261 255 239 234 199 172 113 67 48 46 48 41 33 38
275 260 255 243 241 242 238 232 229 233 231 231 233 230 221 228 231 238 234 242 239 265 273 267 258 237 233 227 183 169 141 89 69 60 45 37 47 49
277 269 258 255 239 238 241 238 237 236 234 233 231 225 221 223 233 237 239 225 221 231 257 243 258 252 233 215 169 172 132 109 86 66 49 33 49 68
267 274 260 250 245 244 234 240 235 234 226 226 222 217 215 220 228 231 220 211 219 225 230 241 253 256 226 212 174 162 144 130 107 86 68 31 45 81
259 263 261 251 252 249 252 245 235 234 221 216 210 208 212 216 216 206 208 199 208 220 226 231 210 224 221 208 188 161 154 140 126 105 108 46 66 86
251 254 252 242 246 247 247 246 242 223 220 213 211 208 209 208 206 206 211 203 212 220 218 207 202 209 205 206 180 170 160 146 137 126 94 74 82 86
268 243 234 231 232 236 239 242 244 222 219 211 208 209 210 209 210 204 204 205 208 217 210 206 204 204 198 198 185 172 162 158 146 137 107 82 93 91
228 244 241 235 242 227 226 232 232 234 222 205 192 197 236 206 197 193 199 204 207 209 202 202 200 202 203 200 190 177 175 164 152 142 149 96 90 97
238 222 235 249 243 246 246 237 227 226 223 222 215 218 238 192 185 192 199 201 203 204 198 197 202 202 202 213 200 192 171 170 164 167 165 131 127 114
240 234 219 240 246 242 240 243 241 228 219 218 219 213 237 247 206 193 201 205 210 207 206 201 204 193 202 205 214 194 177 173 182 183 175 157 138 131
244 239 235 229 235 247 245 235 242 226 223 223 224 219 223 224 224 211 204 207 207 222 218 206 197 195 197 203 209 201 187 180 186 184 195 189 162 163
236 232 230 229 232 239 238 237 225 229 236 229 221 225 229 240 220 211 217 210 205 209 212 207 198 196 201 199 207 204 193 187 186 183 189 176 154 160